Station Historical Data
Daily Summary for April 12, 2017 Units:  Metric    English   Both
« Previous Day
Next Day »
Daily Weekly Monthly Yearly Custom
  High: Low: Average:
Temperature: 8.8 °C 3.5 °C 6.9 °C
Dew Point: 5.4 °C 0.7 °C 2.9 °C
Humidity: 87% 70% 76%
Wind Speed: 27.4km/h 0km/h 8.7km/h
Wind Gust: 33.8km/h - -
Wind- - WSW
Pressure: 1030.7 hPa 1020.9 hPa -
Precipitation: 0 mm    
Historical Graphs
 
 
Tabular Data for April 12, 2017
Time Temperature Dew Point Pressure Wind Wind Speed Wind Gust Humidity Rainfall Rate (Hourly)
00:04 7 °C 5 °C 1020.9 hPa SW 4.8 km/h 11.3 km/h 87% 0 mm
00:09 6.9 °C 4.8 °C 1020.9 hPa SW 6.4 km/h 11.3 km/h 86% 0 mm
00:14 6.9 °C 4.9 °C 1021.2 hPa SW 6.4 km/h 12.9 km/h 87% 0 mm
00:19 6.9 °C 4.8 °C 1020.9 hPa SW 4.8 km/h 12.9 km/h 86% 0 mm
00:24 6.9 °C 4.9 °C 1021.2 hPa SW 6.4 km/h 12.9 km/h 87% 0 mm
00:29 7 °C 5 °C 1021.2 hPa SW 4.8 km/h 11.3 km/h 87% 0 mm
00:34 6.9 °C 4.9 °C 1021.2 hPa SW 9.7 km/h 12.9 km/h 87% 0 mm
00:39 6.9 °C 4.9 °C 1021.2 hPa SW 3.2 km/h 9.7 km/h 87% 0 mm
00:44 6.9 °C 4.9 °C 1021.2 hPa SW 4.8 km/h 9.7 km/h 87% 0 mm
00:49 6.9 °C 4.9 °C 1021.2 hPa SW 3.2 km/h 8 km/h 87% 0 mm
00:54 6.9 °C 4.9 °C 1021.2 hPa SW 3.2 km/h 9.7 km/h 87% 0 mm
00:59 6.9 °C 4.9 °C 1021.2 hPa SW 4.8 km/h 9.7 km/h 87% 0 mm
01:04 6.9 °C 4.9 °C 1021.6 hPa SW 4.8 km/h 9.7 km/h 87% 0 mm
01:09 7 °C 5 °C 1021.2 hPa SW 1.6 km/h 8 km/h 87% 0 mm
01:14 7.1 °C 5.1 °C 1021.2 hPa Calm   3.2 km/h 87% 0 mm
01:19 7.1 °C 5.1 °C 1021.2 hPa Calm     87% 0 mm
01:24 7.2 °C 5.2 °C 1021.2 hPa Calm   4.8 km/h 87% 0 mm
01:29 7.2 °C 5.2 °C 1021.2 hPa SW 1.6 km/h 4.8 km/h 87% 0 mm
01:34 7.3 °C 5.3 °C 1021.2 hPa WSW 1.6 km/h 4.8 km/h 87% 0 mm
01:39 7.4 °C 5.4 °C 1021.6 hPa WSW 1.6 km/h 6.4 km/h 87% 0 mm
01:44 7.4 °C 5.4 °C 1021.6 hPa SSW 4.8 km/h 4.8 km/h 87% 0 mm
01:49 7.4 °C 5.4 °C 1021.2 hPa SSW 3.2 km/h 6.4 km/h 87% 0 mm
01:54 7.4 °C 5.4 °C 1021.2 hPa Calm   6.4 km/h 87% 0 mm
01:59 7.4 °C 5.4 °C 1021.6 hPa SSW 3.2 km/h 8 km/h 87% 0 mm
02:04 7.5 °C 5.3 °C 1021.6 hPa SW 6.4 km/h 9.7 km/h 86% 0 mm
02:09 7.6 °C 5.4 °C 1021.6 hPa South 6.4 km/h 9.7 km/h 86% 0 mm
02:14 7.8 °C 5.4 °C 1021.6 hPa SW 6.4 km/h 9.7 km/h 85% 0 mm
02:19 7.9 °C 5.2 °C 1021.6 hPa SW 4.8 km/h 11.3 km/h 83% 0 mm
02:24 8.1 °C 5.2 °C 1021.6 hPa WSW 4.8 km/h 11.3 km/h 82% 0 mm
02:29 8.2 °C 5 °C 1021.6 hPa WSW 4.8 km/h 8 km/h 80% 0 mm
02:34 8.3 °C 5.1 °C 1021.6 hPa WSW 4.8 km/h 8 km/h 80% 0 mm
02:39 8.3 °C 5.1 °C 1021.6 hPa SW 4.8 km/h 6.4 km/h 80% 0 mm
02:44 8.3 °C 5.1 °C 1021.6 hPa WSW 1.6 km/h 6.4 km/h 80% 0 mm
02:49 8.4 °C 5.1 °C 1021.6 hPa WSW 6.4 km/h 9.7 km/h 80% 0 mm
02:54 8.4 °C 4.8 °C 1021.6 hPa WSW 4.8 km/h 14.5 km/h 78% 0 mm
02:59 8.4 °C 4.4 °C 1021.6 hPa WSW 8 km/h 14.5 km/h 76% 0 mm
03:04 8.6 °C 4.4 °C 1021.6 hPa NNW 4.8 km/h 16.1 km/h 75% 0 mm
03:09 8.7 °C 4.3 °C 1021.6 hPa West 8 km/h 19.3 km/h 74% 0 mm
03:14 8.7 °C 4.3 °C 1021.6 hPa West 8 km/h 19.3 km/h 74% 0 mm
03:19 8.8 °C 4.4 °C 1021.9 hPa WSW 6.4 km/h 12.9 km/h 74% 0 mm
03:24 8.8 °C 4.4 °C 1021.6 hPa SW 6.4 km/h 12.9 km/h 74% 0 mm
03:29 8.6 °C 4.4 °C 1021.6 hPa SW 4.8 km/h 12.9 km/h 75% 0 mm
03:34 8.5 °C 4.3 °C 1021.6 hPa West 4.8 km/h 11.3 km/h 75% 0 mm
03:39 8.3 °C 4.3 °C 1021.6 hPa WSW 6.4 km/h 11.3 km/h 76% 0 mm
03:44 8.2 °C 4.2 °C 1021.6 hPa WSW 6.4 km/h 12.9 km/h 76% 0 mm
03:49 8.1 °C 4.1 °C 1021.6 hPa WSW 6.4 km/h 12.9 km/h 76% 0 mm
03:54 8.1 °C 4.1 °C 1021.6 hPa WSW 6.4 km/h 12.9 km/h 76% 0 mm
03:59 8 °C 4.2 °C 1021.6 hPa SW 4.8 km/h 9.7 km/h 77% 0 mm
04:04 7.9 °C 4.1 °C 1021.6 hPa WSW 4.8 km/h 9.7 km/h 77% 0 mm
04:09 7.9 °C 4.1 °C 1021.6 hPa WSW 4.8 km/h 9.7 km/h 77% 0 mm
04:14 7.8 °C 4.1 °C 1021.6 hPa SW 4.8 km/h 9.7 km/h 77% 0 mm
04:19 7.8 °C 4 °C 1021.9 hPa WSW 6.4 km/h 11.3 km/h 77% 0 mm
04:24 7.7 °C 4.1 °C 1021.9 hPa WSW 6.4 km/h 9.7 km/h 78% 0 mm
04:29 7.7 °C 3.9 °C 1021.9 hPa WSW 12.9 km/h 14.5 km/h 77% 0 mm
04:34 7.6 °C 3.8 °C 1021.9 hPa WSW 6.4 km/h 14.5 km/h 77% 0 mm
04:39 7.6 °C 3.9 °C 1021.9 hPa WSW 8 km/h 11.3 km/h 78% 0 mm
04:44 7.5 °C 3.9 °C 1021.9 hPa WSW 4.8 km/h 12.9 km/h 78% 0 mm
04:49 7.6 °C 3.9 °C 1021.9 hPa WSW 4.8 km/h 12.9 km/h 78% 0 mm
04:54 7.5 °C 3.9 °C 1021.9 hPa WSW 6.4 km/h 11.3 km/h 78% 0 mm
04:59 7.5 °C 3.9 °C 1021.9 hPa WSW 6.4 km/h 11.3 km/h 78% 0 mm
05:04 7.4 °C 3.8 °C 1021.9 hPa WSW 4.8 km/h 11.3 km/h 78% 0 mm
05:09 7.4 °C 3.8 °C 1021.9 hPa WSW 4.8 km/h 9.7 km/h 78% 0 mm
05:14 7.4 °C 3.8 °C 1021.9 hPa West 1.6 km/h 9.7 km/h 78% 0 mm
05:19 7.4 °C 3.8 °C 1021.9 hPa West 4.8 km/h 9.7 km/h 78% 0 mm
05:24 7.4 °C 3.6 °C 1021.9 hPa WSW 4.8 km/h 11.3 km/h 77% 0 mm
05:29 7.4 °C 3.7 °C 1022.2 hPa West 6.4 km/h 9.7 km/h 77% 0 mm
05:34 7.4 °C 3.5 °C 1022.2 hPa West 6.4 km/h 16.1 km/h 76% 0 mm
05:39 7.5 °C 3.3 °C 1022.2 hPa West 8 km/h 19.3 km/h 75% 0 mm
05:44 7.5 °C 3.3 °C 1022.6 hPa WNW 4.8 km/h 19.3 km/h 75% 0 mm
05:49 7.5 °C 3.2 °C 1022.6 hPa West 9.7 km/h 22.5 km/h 74% 0 mm
05:54 7.4 °C 3.1 °C 1022.6 hPa West 9.7 km/h 22.5 km/h 74% 0 mm
05:59 7.4 °C 2.9 °C 1022.6 hPa West 9.7 km/h 19.3 km/h 73% 0 mm
06:04 7.4 °C 2.9 °C 1022.6 hPa West 17.7 km/h 22.5 km/h 73% 0 mm
06:09 7.3 °C 2.8 °C 1022.9 hPa West 16.1 km/h 22.5 km/h 73% 0 mm
06:14 7.3 °C 2.6 °C 1022.9 hPa WNW 3.2 km/h 20.9 km/h 72% 0 mm
06:19 7.3 °C 2.6 °C 1022.9 hPa West 11.3 km/h 20.9 km/h 72% 0 mm
06:24 7.2 °C 2.5 °C 1023.2 hPa WNW 8 km/h 17.7 km/h 72% 0 mm
06:29 7.2 °C 2.4 °C 1023.2 hPa WSW 12.9 km/h 24.1 km/h 72% 0 mm
06:34 7.2 °C 2.4 °C 1023.6 hPa West 3.2 km/h 14.5 km/h 72% 0 mm
06:39 7.1 °C 2.4 °C 1023.6 hPa West 11.3 km/h 17.7 km/h 72% 0 mm
06:44 7.2 °C 2.7 °C 1023.6 hPa WNW 6.4 km/h 12.9 km/h 73% 0 mm
06:49 7.1 °C 2.6 °C 1023.6 hPa West 6.4 km/h 12.9 km/h 73% 0 mm
06:54 7.1 °C 2.6 °C 1023.6 hPa WNW 6.4 km/h 12.9 km/h 73% 0 mm
06:59 7.1 °C 2.6 °C 1023.9 hPa WNW 8 km/h 22.5 km/h 73% 0 mm
07:04 7 °C 2.5 °C 1023.9 hPa WNW 9.7 km/h 22.5 km/h 73% 0 mm
07:09 6.9 °C 2.4 °C 1023.9 hPa WSW 8 km/h 20.9 km/h 73% 0 mm
07:14 6.9 °C 2.4 °C 1023.9 hPa West 9.7 km/h 22.5 km/h 73% 0 mm
07:19 6.9 °C 2.4 °C 1023.9 hPa West 9.7 km/h 22.5 km/h 73% 0 mm
07:24 6.9 °C 2.4 °C 1023.9 hPa West 8 km/h 20.9 km/h 73% 0 mm
07:29 6.9 °C 2.4 °C 1024.3 hPa WNW 6.4 km/h 16.1 km/h 73% 0 mm
07:34 6.8 °C 2.3 °C 1024.3 hPa WNW 12.9 km/h 17.7 km/h 73% 0 mm
07:39 6.8 °C 2.3 °C 1024.3 hPa WSW 12.9 km/h 19.3 km/h 73% 0 mm
07:44 6.8 °C 2.3 °C 1024.3 hPa WNW 12.9 km/h 17.7 km/h 73% 0 mm
07:49 6.8 °C 2.3 °C 1024.6 hPa West 8 km/h 17.7 km/h 73% 0 mm
07:54 6.8 °C 2.3 °C 1024.6 hPa West 6.4 km/h 16.1 km/h 73% 0 mm
07:59 6.8 °C 2.3 °C 1024.6 hPa West 6.4 km/h 19.3 km/h 73% 0 mm
08:04 6.8 °C 2.3 °C 1024.6 hPa West 8 km/h 19.3 km/h 73% 0 mm
08:09 6.8 °C 2.3 °C 1024.6 hPa West 9.7 km/h 17.7 km/h 73% 0 mm
08:14 6.9 °C 2.4 °C 1024.6 hPa West 9.7 km/h 16.1 km/h 73% 0 mm
08:19 6.9 °C 2.4 °C 1024.9 hPa WNW 8 km/h 16.1 km/h 73% 0 mm
08:24 6.9 °C 2.4 °C 1024.9 hPa WNW 4.8 km/h 16.1 km/h 73% 0 mm
08:29 7 °C 2.5 °C 1024.6 hPa West 11.3 km/h 16.1 km/h 73% 0 mm
08:34 7 °C 2.5 °C 1024.9 hPa WNW 8 km/h 17.7 km/h 73% 0 mm
08:39 7 °C 2.5 °C 1024.9 hPa WNW 12.9 km/h 16.1 km/h 73% 0 mm
08:44 6.9 °C 2.4 °C 1024.9 hPa WNW 9.7 km/h 14.5 km/h 73% 0 mm
08:49 6.9 °C 2.4 °C 1024.9 hPa West 8 km/h 14.5 km/h 73% 0 mm
08:54 7 °C 2.5 °C 1024.9 hPa West 8 km/h 16.1 km/h 73% 0 mm
08:59 7.1 °C 2.6 °C 1024.9 hPa West 6.4 km/h 16.1 km/h 73% 0 mm
09:04 7.1 °C 2.6 °C 1024.9 hPa West 6.4 km/h 12.9 km/h 73% 0 mm
09:09 7.2 °C 2.7 °C 1024.9 hPa West 8 km/h 14.5 km/h 73% 0 mm
09:14 7.2 °C 2.9 °C 1024.9 hPa West 11.3 km/h 16.1 km/h 74% 0 mm
09:19 7.3 °C 2.8 °C 1025.3 hPa West 4.8 km/h 14.5 km/h 73% 0 mm
09:24 7.2 °C 2.7 °C 1025.3 hPa West 8 km/h 17.7 km/h 73% 0 mm
09:29 7.2 °C 2.7 °C 1025.3 hPa West 8 km/h 17.7 km/h 73% 0 mm
09:34 7.2 °C 2.7 °C 1025.3 hPa WNW 9.7 km/h 12.9 km/h 73% 0 mm
09:39 7.3 °C 2.8 °C 1025.6 hPa WNW 11.3 km/h 14.5 km/h 73% 0 mm
09:44 7.2 °C 2.4 °C 1025.6 hPa NW 6.4 km/h 16.1 km/h 72% 0 mm
09:49 7.1 °C 2.6 °C 1025.6 hPa West 9.7 km/h 17.7 km/h 73% 0 mm
09:54 7.2 °C 2.7 °C 1025.6 hPa West 9.7 km/h 17.7 km/h 73% 0 mm
09:59 7.2 °C 2.5 °C 1025.6 hPa West 9.7 km/h 19.3 km/h 72% 0 mm
10:04 7.2 °C 2.5 °C 1025.6 hPa West 9.7 km/h 19.3 km/h 72% 0 mm
10:09 7.2 °C 2.5 °C 1025.6 hPa WSW 4.8 km/h 20.9 km/h 72% 0 mm
10:14 7.3 °C 2.6 °C 1025.6 hPa WNW 6.4 km/h 14.5 km/h 72% 0 mm
10:19 7.3 °C 2.4 °C 1025.6 hPa WNW 9.7 km/h 16.1 km/h 71% 0 mm
10:24 7.4 °C 2.5 °C 1025.6 hPa West 8 km/h 19.3 km/h 71% 0 mm
10:29 7.4 °C 2.3 °C 1025.6 hPa West 9.7 km/h 19.3 km/h 70% 0 mm
10:34 7.4 °C 2.5 °C 1025.6 hPa West 9.7 km/h 16.1 km/h 71% 0 mm
10:39 7.4 °C 2.3 °C 1026 hPa WNW 17.7 km/h 17.7 km/h 70% 0 mm
10:44 7.4 °C 2.4 °C 1026 hPa West 8 km/h 19.3 km/h 71% 0 mm
10:49 7.4 °C 2.5 °C 1026 hPa WSW 4.8 km/h 16.1 km/h 71% 0 mm
10:54 7.4 °C 2.7 °C 1026 hPa WSW 8 km/h 17.7 km/h 72% 0 mm
10:59 7.4 °C 2.7 °C 1026 hPa WSW 9.7 km/h 17.7 km/h 72% 0 mm
11:04 7.3 °C 2.6 °C 1026 hPa WSW 9.7 km/h 17.7 km/h 72% 0 mm
11:09 7.4 °C 2.7 °C 1026 hPa WSW 9.7 km/h 17.7 km/h 72% 0 mm
11:14 7.4 °C 2.7 °C 1026 hPa SW 6.4 km/h 17.7 km/h 72% 0 mm
11:19 7.4 °C 2.7 °C 1026 hPa WSW 8 km/h 16.1 km/h 72% 0 mm
11:24 7.3 °C 2.4 °C 1026 hPa WSW 11.3 km/h 20.9 km/h 71% 0 mm
11:29 7.7 °C 2.7 °C 1026.3 hPa WSW 9.7 km/h 20.9 km/h 71% 0 mm
11:34 7.3 °C 2.6 °C 1026.3 hPa WSW 9.7 km/h 20.9 km/h 72% 0 mm
11:39 7.3 °C 2.8 °C 1026.3 hPa WSW 8 km/h 14.5 km/h 73% 0 mm
11:44 7.5 °C 2.9 °C 1026.3 hPa SW 11.3 km/h 19.3 km/h 73% 0 mm
11:49 7.4 °C 2.7 °C 1026.6 hPa WNW 12.9 km/h 20.9 km/h 72% 0 mm
11:54 6.9 °C 2.6 °C 1026.6 hPa WSW 11.3 km/h 22.5 km/h 74% 0 mm
11:59 6.8 °C 2.4 °C 1026.6 hPa WSW 12.9 km/h 22.5 km/h 74% 0 mm
12:04 6.7 °C 2.6 °C 1026.6 hPa WSW 11.3 km/h 24.1 km/h 75% 0 mm
12:09 6.8 °C 2.7 °C 1026.6 hPa WSW 9.7 km/h 25.7 km/h 75% 0 mm
12:14 6.8 °C 2.5 °C 1026.6 hPa SW 11.3 km/h 20.9 km/h 74% 0 mm
12:19 6.7 °C 2.2 °C 1026.6 hPa WSW 11.3 km/h 25.7 km/h 73% 0 mm
12:24 6.6 °C 2.1 °C 1026.6 hPa WSW 14.5 km/h 25.7 km/h 73% 0 mm
12:29 6.7 °C 2.2 °C 1027 hPa WSW 12.9 km/h 22.5 km/h 73% 0 mm
12:34 6.6 °C 2.2 °C 1027 hPa WSW 12.9 km/h 24.1 km/h 74% 0 mm
12:39 6.6 °C 2.3 °C 1027 hPa West 12.9 km/h 25.7 km/h 74% 0 mm
12:44 6.7 °C 2.3 °C 1027 hPa WSW 6.4 km/h 19.3 km/h 74% 0 mm
12:49 6.7 °C 2.3 °C 1027 hPa West 16.1 km/h 29 km/h 74% 0 mm
12:54 6.7 °C 2.6 °C 1027 hPa WSW 14.5 km/h 30.6 km/h 75% 0 mm
12:59 6.7 °C 2.6 °C 1027 hPa WSW 12.9 km/h 30.6 km/h 75% 0 mm
13:04 6.7 °C 2.6 °C 1027 hPa NW 9.7 km/h 25.7 km/h 75% 0 mm
13:09 6.8 °C 2.7 °C 1027 hPa SSW 11.3 km/h 19.3 km/h 75% 0 mm
13:14 7 °C 2.7 °C 1027 hPa WSW 17.7 km/h 25.7 km/h 74% 0 mm
13:19 6.9 °C 2.6 °C 1027 hPa WSW 17.7 km/h 29 km/h 74% 0 mm
13:24 7 °C 2.5 °C 1027 hPa WSW 14.5 km/h 29 km/h 73% 0 mm
13:29 7.2 °C 2.9 °C 1027 hPa WSW 14.5 km/h 24.1 km/h 74% 0 mm
13:34 7.4 °C 2.9 °C 1027 hPa WSW 11.3 km/h 22.5 km/h 73% 0 mm
13:39 7.2 °C 2.7 °C 1027 hPa SW 17.7 km/h 27.4 km/h 73% 0 mm
13:44 7 °C 2.5 °C 1027 hPa West 12.9 km/h 20.9 km/h 73% 0 mm
13:49 7 °C 2.5 °C 1027 hPa SW 8 km/h 20.9 km/h 73% 0 mm
13:54 6.8 °C 2.3 °C 1027 hPa SW 12.9 km/h 25.7 km/h 73% 0 mm
13:59 6.8 °C 2.5 °C 1027 hPa SW 14.5 km/h 25.7 km/h 74% 0 mm
14:04 6.9 °C 2.4 °C 1027 hPa SW 14.5 km/h 27.4 km/h 73% 0 mm
14:09 7 °C 2.7 °C 1027 hPa SE 8 km/h 29 km/h 74% 0 mm
14:14 7.2 °C 2.7 °C 1027 hPa West 6.4 km/h 25.7 km/h 73% 0 mm
14:19 7.3 °C 2.6 °C 1027 hPa West 8 km/h 25.7 km/h 72% 0 mm
14:24 7.3 °C 2.6 °C 1027.3 hPa West 14.5 km/h 32.2 km/h 72% 0 mm
14:29 7.6 °C 3.1 °C 1027.3 hPa WSW 16.1 km/h 32.2 km/h 73% 0 mm
14:34 8.2 °C 3.2 °C 1027.3 hPa WSW 16.1 km/h 29 km/h 71% 0 mm
14:39 7.9 °C 2.9 °C 1027.3 hPa WSW 12.9 km/h 29 km/h 71% 0 mm
14:44 7.6 °C 2.7 °C 1027 hPa WSW 12.9 km/h 29 km/h 71% 0 mm
14:49 7.4 °C 2.7 °C 1027 hPa WSW 19.3 km/h 24.1 km/h 72% 0 mm
14:54 7.7 °C 3.1 °C 1027 hPa SSW 8 km/h 25.7 km/h 73% 0 mm
14:59 8.2 °C 3.1 °C 1027 hPa West 27.4 km/h 27.4 km/h 70% 0 mm
15:04 8.2 °C 3 °C 1027 hPa SW 17.7 km/h 30.6 km/h 70% 0 mm
15:09 7.9 °C 2.8 °C 1027 hPa West 16.1 km/h 24.1 km/h 70% 0 mm
15:14 7.6 °C 2.7 °C 1027 hPa WSW 9.7 km/h 32.2 km/h 71% 0 mm
15:19 7.9 °C 2.9 °C 1027 hPa WSW 19.3 km/h 25.7 km/h 71% 0 mm
15:24 8.2 °C 3.2 °C 1027 hPa West 11.3 km/h 25.7 km/h 71% 0 mm
15:29 7.8 °C 2.7 °C 1027.3 hPa WSW 14.5 km/h 27.4 km/h 70% 0 mm
15:34 7.4 °C 2.7 °C 1027.3 hPa WSW 12.9 km/h 27.4 km/h 72% 0 mm
15:39 7.2 °C 2.5 °C 1027.3 hPa WSW 14.5 km/h 24.1 km/h 72% 0 mm
15:44 7 °C 2.5 °C 1027.3 hPa WSW 16.1 km/h 30.6 km/h 73% 0 mm
15:49 6.9 °C 2.6 °C 1027.3 hPa SW 14.5 km/h 30.6 km/h 74% 0 mm
15:54 7 °C 2.7 °C 1027.3 hPa WSW 12.9 km/h 30.6 km/h 74% 0 mm
16:04 7 °C 2.5 °C 1027.3 hPa WSW 16.1 km/h 20.9 km/h 73% 0 mm
16:09 6.9 °C 2.4 °C 1027.3 hPa West 9.7 km/h 30.6 km/h 73% 0 mm
16:14 6.9 °C 2.6 °C 1027.3 hPa WSW 16.1 km/h 20.9 km/h 74% 0 mm
16:19 6.8 °C 2.5 °C 1027.7 hPa SW 9.7 km/h 20.9 km/h 74% 0 mm
16:24 6.8 °C 2.4 °C 1027.3 hPa SW 14.5 km/h 29 km/h 74% 0 mm
16:29 6.8 °C 2.4 °C 1027.3 hPa WSW 12.9 km/h 29 km/h 74% 0 mm
16:34 6.8 °C 2.4 °C 1027.3 hPa WSW 12.9 km/h 33.8 km/h 74% 0 mm
16:39 6.9 °C 2.6 °C 1027.3 hPa WSW 11.3 km/h 33.8 km/h 74% 0 mm
16:44 6.9 °C 2.4 °C 1027.7 hPa WNW 9.7 km/h 27.4 km/h 73% 0 mm
16:49 7 °C 2.5 °C 1027.7 hPa West 12.9 km/h 24.1 km/h 73% 0 mm
16:54 7.1 °C 2.6 °C 1027.7 hPa SW 12.9 km/h 25.7 km/h 73% 0 mm
16:59 7.1 °C 2.6 °C 1027.7 hPa WSW 12.9 km/h 29 km/h 73% 0 mm
17:04 7 °C 2.3 °C 1027.7 hPa WSW 14.5 km/h 29 km/h 72% 0 mm
17:09 7.2 °C 2.4 °C 1027.7 hPa WSW 14.5 km/h 29 km/h 72% 0 mm
17:14 7.1 °C 2.3 °C 1027.7 hPa WSW 12.9 km/h 27.4 km/h 72% 0 mm
17:19 7 °C 2.5 °C 1027.7 hPa WSW 9.7 km/h 17.7 km/h 73% 0 mm
17:24 6.9 °C 2.2 °C 1027.7 hPa West 14.5 km/h 22.5 km/h 72% 0 mm
17:29 6.8 °C 2.3 °C 1027.7 hPa WSW 12.9 km/h 25.7 km/h 73% 0 mm
17:34 6.8 °C 2.4 °C 1027.7 hPa WSW 12.9 km/h 25.7 km/h 74% 0 mm
17:39 6.8 °C 2.3 °C 1027.7 hPa West 11.3 km/h 29 km/h 73% 0 mm
17:44 6.8 °C 2.4 °C 1027.7 hPa West 8 km/h 27.4 km/h 74% 0 mm
17:49 6.8 °C 2.5 °C 1027.7 hPa South 12.9 km/h 25.7 km/h 74% 0 mm
17:54 6.8 °C 2.5 °C 1027.7 hPa SSW 11.3 km/h 25.7 km/h 74% 0 mm
17:59 6.9 °C 2.6 °C 1027.7 hPa West 8 km/h 20.9 km/h 74% 0 mm
18:04 6.9 °C 2.4 °C 1027.7 hPa WSW 11.3 km/h 24.1 km/h 73% 0 mm
18:09 6.8 °C 2.4 °C 1027.7 hPa WSW 12.9 km/h 25.7 km/h 74% 0 mm
18:14 6.7 °C 2.4 °C 1027.7 hPa WSW 14.5 km/h 27.4 km/h 74% 0 mm
18:19 6.8 °C 2.7 °C 1028 hPa WSW 12.9 km/h 27.4 km/h 75% 0 mm
18:24 6.7 °C 2.4 °C 1028 hPa WSW 11.3 km/h 22.5 km/h 74% 0 mm
18:29 6.5 °C 2.4 °C 1028 hPa West 8 km/h 25.7 km/h 75% 0 mm
18:34 6.5 °C 2.4 °C 1028 hPa WSW 12.9 km/h 25.7 km/h 75% 0 mm
18:39 6.6 °C 2.4 °C 1028 hPa SW 8 km/h 17.7 km/h 75% 0 mm
18:44 6.6 °C 2.4 °C 1028 hPa West 25.7 km/h 25.7 km/h 75% 0 mm
18:49 6.4 °C 2.5 °C 1028 hPa WSW 9.7 km/h 29 km/h 76% 0 mm
18:54 6.3 °C 2.4 °C 1028.3 hPa West 17.7 km/h 27.4 km/h 76% 0 mm
18:59 6.3 °C 2.3 °C 1028.3 hPa WSW 11.3 km/h 25.7 km/h 76% 0 mm
19:04 6.2 °C 2.5 °C 1028.3 hPa WSW 11.3 km/h 25.7 km/h 77% 0 mm
19:09 6.2 °C 2.4 °C 1028.3 hPa WSW 11.3 km/h 20.9 km/h 77% 0 mm
19:14 6.1 °C 2.3 °C 1028.3 hPa WSW 11.3 km/h 20.9 km/h 77% 0 mm
19:19 6.1 °C 2.4 °C 1028.3 hPa WSW 11.3 km/h 19.3 km/h 77% 0 mm
19:24 6.1 °C 2.4 °C 1028.3 hPa WSW 9.7 km/h 16.1 km/h 77% 0 mm
19:29 6.1 °C 2.3 °C 1028.7 hPa SW 16.1 km/h 24.1 km/h 77% 0 mm
19:34 6.1 °C 2.5 °C 1028.7 hPa West 9.7 km/h 27.4 km/h 78% 0 mm
19:39 6 °C 2.4 °C 1028.7 hPa WSW 12.9 km/h 27.4 km/h 78% 0 mm
19:44 6 °C 2.4 °C 1028.7 hPa West 8 km/h 20.9 km/h 78% 0 mm
19:49 6.1 °C 2.5 °C 1028.7 hPa WSW 6.4 km/h 20.9 km/h 78% 0 mm
19:54 6.1 °C 2.5 °C 1028.7 hPa SW 11.3 km/h 17.7 km/h 78% 0 mm
19:59 6.1 °C 2.6 °C 1029 hPa WSW 4.8 km/h 17.7 km/h 78% 0 mm
20:04 6.2 °C 2.4 °C 1029 hPa WSW 9.7 km/h 17.7 km/h 77% 0 mm
20:09 6.2 °C 2.4 °C 1029 hPa WSW 9.7 km/h 17.7 km/h 77% 0 mm
20:14 6.2 °C 2.4 °C 1029 hPa WSW 9.7 km/h 19.3 km/h 77% 0 mm
20:19 6.2 °C 2.4 °C 1029.3 hPa WSW 9.7 km/h 25.7 km/h 77% 0 mm
20:24 6.1 °C 2.6 °C 1029.3 hPa SSW 12.9 km/h 19.3 km/h 78% 0 mm
20:29 6.1 °C 2.5 °C 1029.3 hPa WSW 6.4 km/h 19.3 km/h 78% 0 mm
20:34 5.9 °C 2.4 °C 1029.3 hPa WSW 8 km/h 19.3 km/h 78% 0 mm
20:39 5.8 °C 2.3 °C 1029.3 hPa WSW 8 km/h 14.5 km/h 78% 0 mm
20:44 5.8 °C 2.3 °C 1029.7 hPa West 8 km/h 14.5 km/h 78% 0 mm
20:49 5.8 °C 2.3 °C 1029.7 hPa WSW 6.4 km/h 16.1 km/h 78% 0 mm
20:54 5.8 °C 2.2 °C 1029.7 hPa WSW 6.4 km/h 12.9 km/h 78% 0 mm
20:59 5.7 °C 2.2 °C 1029.7 hPa WSW 8 km/h 14.5 km/h 78% 0 mm
21:04 5.7 °C 2.1 °C 1030 hPa WSW 8 km/h 14.5 km/h 78% 0 mm
21:09 5.7 °C 2.1 °C 1030.4 hPa WSW 6.4 km/h 12.9 km/h 78% 0 mm
21:14 5.6 °C 2.2 °C 1030 hPa WSW 8 km/h 14.5 km/h 79% 0 mm
21:19 5.6 °C 2.2 °C 1030.4 hPa WSW 6.4 km/h 14.5 km/h 79% 0 mm
21:24 5.6 °C 2.2 °C 1030.4 hPa WSW 6.4 km/h 9.7 km/h 79% 0 mm
21:29 5.6 °C 2.2 °C 1030.4 hPa WSW 8 km/h 11.3 km/h 79% 0 mm
21:34 5.5 °C 2.2 °C 1030.4 hPa WSW 6.4 km/h 11.3 km/h 79% 0 mm
21:39 5.5 °C 2.2 °C 1030.4 hPa WSW 6.4 km/h 12.9 km/h 79% 0 mm
21:44 5.4 °C 2.1 °C 1030.4 hPa WSW 6.4 km/h 14.5 km/h 79% 0 mm
21:49 5.4 °C 2.1 °C 1030.4 hPa WSW 3.2 km/h 11.3 km/h 79% 0 mm
21:54 5.3 °C 2.2 °C 1030.4 hPa WSW 4.8 km/h 11.3 km/h 80% 0 mm
21:59 5.3 °C 2.2 °C 1030.4 hPa West 3.2 km/h 9.7 km/h 80% 0 mm
22:04 5.2 °C 2 °C 1030.4 hPa WSW 4.8 km/h 9.7 km/h 80% 0 mm
22:09 5.2 °C 2.1 °C 1030.4 hPa WSW 4.8 km/h 11.3 km/h 80% 0 mm
22:14 5.2 °C 2.1 °C 1030.4 hPa WSW 4.8 km/h 11.3 km/h 80% 0 mm
22:19 5.2 °C 1.9 °C 1030.7 hPa WSW 4.8 km/h 6.4 km/h 79% 0 mm
22:24 5.2 °C 1.8 °C 1030.7 hPa West 4.8 km/h 11.3 km/h 79% 0 mm
22:29 5.2 °C 1.8 °C 1030.7 hPa West 3.2 km/h 9.7 km/h 79% 0 mm
22:34 5.1 °C 1.8 °C 1030.4 hPa West 4.8 km/h 11.3 km/h 79% 0 mm
22:39 5.1 °C 1.8 °C 1030.4 hPa WSW 3.2 km/h 11.3 km/h 79% 0 mm
22:44 5.1 °C 1.7 °C 1030.7 hPa WSW 3.2 km/h 8 km/h 79% 0 mm
22:49 5.1 °C 1.7 °C 1030.7 hPa WSW 3.2 km/h 11.3 km/h 79% 0 mm
22:54 5 °C 1.7 °C 1030.7 hPa WSW 3.2 km/h 9.7 km/h 79% 0 mm
22:59 4.9 °C 1.6 °C 1030.7 hPa WSW 3.2 km/h 6.4 km/h 79% 0 mm
23:04 4.9 °C 1.6 °C 1030.4 hPa WSW 1.6 km/h 8 km/h 79% 0 mm
23:09 4.7 °C 1.4 °C 1030.4 hPa WSW 3.2 km/h 8 km/h 79% 0 mm
23:14 4.7 °C 1.5 °C 1030.7 hPa WSW 3.2 km/h 8 km/h 80% 0 mm
23:19 4.7 °C 1.6 °C 1030.4 hPa WSW 4.8 km/h 8 km/h 80% 0 mm
23:24 4.6 °C 1.4 °C 1030.7 hPa West 3.2 km/h 8 km/h 80% 0 mm
23:29 4.5 °C 1.3 °C 1030.7 hPa West 3.2 km/h 6.4 km/h 80% 0 mm
23:34 4.3 °C 1.3 °C 1030.7 hPa West 6.4 km/h 6.4 km/h 81% 0 mm
23:39 4.2 °C 1.2 °C 1030.7 hPa West 3.2 km/h 6.4 km/h 81% 0 mm
23:44 4 °C 1.1 °C 1030.7 hPa West 1.6 km/h 6.4 km/h 81% 0 mm
23:49 3.7 °C 0.9 °C 1030.7 hPa West 1.6 km/h 3.2 km/h 82% 0 mm
23:54 3.6 °C 0.8 °C 1030.7 hPa Calm   1.6 km/h 82% 0 mm
23:59 3.5 °C 0.7 °C 1030.7 hPa West 4.8 km/h 4.8 km/h 82% 0 mm
Buffalo, New York, USA
Compliments of Weather Underground - 2.5 mb